カタログに戻る

NILA

運用中科学SSO
NORAD 63241·PAYLOAD·🇮🇳 India
この衛星名は、まだ公式ソースで確認されていません。

打ち上げ Mar 15, 2025 から Vandenberg Space Force Base

Loading…

次のパス (今後24時間)

TLE

最新Source: Space-Track

元期: Sep 14, 2026, 12:09 UTC

1 63241U 25052AH  26257.50663429  .00009035  00000-0  32028-3 0  9992
2 63241  97.3700 150.1442 0006017 185.2275 174.8903 15.29301240 83588

AllMySatでNILAをリアルタイム追跡

Download on the App Store